Location: Nairn
(57.5833°N, 3.8667°W)
Time: 01:10:48
(UTC+00:00)

Cosmos 2219 - Pass Details

Date: 07 August 2020
Orbit: 834 x 860 km, 71.1° (Epoch: 19 September)

Event Time Altitude Azimuth Distance (km) Brightness Sun altitude
Exits shadow 02:27:29 16° 205° (SSW) 2,081 4.6 -11.6°
Maximum altitude 02:32:05 75° 122° (ESE) 870 3.3 -11.3°
Drops below altitude 10° 02:37:43 10° 38° (NE) 2,458 7.2 -10.9°
Sets 02:40:10 0° 37° (NE) 3,397 8.6 -10.7°
